Regional Weather Roundup
Issued by NWS

Home | Current Version | Previous Version | Graphics & Text | Print | Product List | Glossary Off
Versions: 1 2 3 4 5 6 7 8 9 10 11 12 13 14 15 16 17 18 19 20 21 22 23 24 25 26 27 28 29 30 31 32 33 34 35 36 37 38 39 40 41 42 43 44 45 46 47 48 49 50

000
ASUS43 KMKX 062221
RWRWI

WISCONSIN REGIONAL WEATHER ROUNDUP
NATIONAL WEATHER SERVICE MILWAUKEE/SULLIVAN WI
500 PM CDT WED MAY 06 2015

NOTE: "FAIR" INDICATES FEW OR NO CLOUDS BELOW 12,000 FEET WITH NO
SIGNIFICANT WEATHER AND/OR OBSTRUCTIONS TO VISIBILITY.

WIZ001-002-006>008-014>016-023>028-062300-
NORTHWEST WISCONSIN

CITY           SKY/WX    TMP DP  RH WIND       PRES   REMARKS
SUPERIOR ARPT  PTSUNNY   47  35  62 E14G25    30.00F
ASHLAND        CLOUDY    62  51  67 NE9       30.01F
HAYWARD        MOSUNNY   73  55  53 SE14      29.98F
SIREN          PTSUNNY   76  54  46 SE13G20   29.93F
CUMBERLAND     PTSUNNY   72  55  56 SE17G24   29.96F
RICE LAKE      PTSUNNY   74  56  52 SE14G22   29.97F
CHETEK         PTSUNNY   75  60  59 SE10G20   29.96F
LADYSMITH      PTSUNNY   72  58  62 SE10      30.03F
EAU CLAIRE     PTSUNNY   76  57  51 SE13G21   29.95F
MENOMONIE      PTSUNNY   77  56  48 SE20G25   29.94F
NEW RICHMOND   PTSUNNY   74  57  55 SE13G20   29.91F
OSCEOLA        PTSUNNY   76  58  52 SE16      29.92F
$$

WIZ003>005-009-010-017-018-062300-
NORTH CENTRAL WISCONSIN

CITY           SKY/WX    TMP DP  RH WIND       PRES   REMARKS
MANITOWISH WTR CLOUDY    67  58  73 S10G16    30.05F
ARBOR VITAE    CLOUDY    69  59  69 S15       30.06F
WOODRUFF       CLOUDY    69  59  69 S15       30.06F
RHINELANDER    CLOUDY    70  57  63 SE10      30.08F
EAGLE RIVER    PTSUNNY   68  52  57 S9        30.07F
LAND O LAKES   PTSUNNY   71  53  53 SE8       30.07F
PHILLIPS       PTSUNNY   67  58  71 SE10      30.04F
TOMAHAWK       PTSUNNY   66  57  72 SE6       30.06F
MEDFORD        MOSUNNY   71  58  63 SE12G18   30.04F
MERRILL        PTSUNNY   70  59  67 S8        30.07F
$$

WIZ029-030-035-036-043>047-062300-
CENTRAL WISCONSIN

CITY           SKY/WX    TMP DP  RH WIND       PRES   REMARKS
WAUSAU         MOSUNNY   72  58  61 E13       30.04F
MOSINEE        SUNNY     72  59  64 SE10G16   30.06F
MARSHFIELD     PTSUNNY   76  59  55 SE16      30.02F
STEVENS POINT  MOSUNNY   70  56  61 E10G16    30.06F
WAUPACA        MOSUNNY   73  58  61 E9        30.08F
WAUTOMA        SUNNY     73  59  61 E8        30.06F
WISC RAPIDS    MOSUNNY   77  55  46 S13       30.04F
CAMP DOUGLAS   PTSUNNY   77  63  61 SE13      30.01F
$$

WIZ011>013-019>022-031-037>040-048>050-062300-
NORTHEAST WISCONSIN

CITY           SKY/WX    TMP DP  RH WIND       PRES   REMARKS
ANTIGO         PTSUNNY   68  59  71 S10       30.09F
SHAWANO        MOSUNNY   73  58  59 SE8G18    30.09F
OCONTO         MOSUNNY   62  51  69 E8        30.11F
STURGEON BAY   MOSUNNY   59  48  67 E9        30.16S
GREEN BAY      MOSUNNY   69  57  65 SE8       30.11F
MANITOWOC        N/A    N/A N/A N/A MISG        N/A
APPLETON       MOSUNNY   66  55  68 SE12      30.10
CLINTONVILLE   MOSUNNY   70  55  60 SE13      30.09S
OSHKOSH        SUNNY     66  57  72 E8        30.08F
$$

WIZ032>034-041-042-053>061-062300-
SOUTHWEST WISCONSIN

CITY           SKY/WX    TMP DP  RH WIND       PRES   REMARKS
LA CROSSE      PTSUNNY   80  56  43 SE14G23   29.95F HX  80
SPARTA         PTSUNNY   78  55  45 SE10      29.99F
VIROQUA        PTSUNNY   76  58  54 SE14G20   30.00F
BOSCOBEL       MOSUNNY   81  59  47 SE9       29.98F HX  81
PRAIRIE DU CHI MOSUNNY   79  57  46 SE13G23   29.95F
PLATTEVILLE    MOSUNNY   78  60  53 SE17      30.00F
$$

WIZ056-057-062-063-064-067-068-062300-
SOUTH CENTRAL WISCONSIN

CITY           SKY/WX    TMP DP  RH WIND       PRES   REMARKS
REEDSBURG      SUNNY     74  62  64 SE9       30.03F
BARABOO/DELLS  NOT AVBL
LONE ROCK      MOSUNNY   77  60  55 SE14G22   30.01F
MINERAL POINT  MOSUNNY   79  57  47 SE15G21   30.02F HX  80
MADISON        PTSUNNY   76  62  62 SE10      30.04F
MIDDLETON      MOSUNNY   77  61  58 SE12      30.05S
WATERTOWN      MOSUNNY   71  59  66 E12       30.07F
MONROE         MOSUNNY   75  61  60 SE10      30.04F
JANESVILLE     PTSUNNY   79  61  53 SE12      30.05F HX  80
$$

WIZ051-052-058>065-066-070>072-062300-
SOUTHEAST WISCONSIN

CITY           SKY/WX    TMP DP  RH WIND       PRES   REMARKS
MILWAUKEE      PTSUNNY   58  52  80 E5        30.12F
WAUKESHA       PTSUNNY   64  54  68 E8        30.12F
MILWAUKEE/TIMM MOSUNNY   59  50  72 E5        30.12F
RACINE         MOSUNNY   60  53  77 E6        30.13F
BURLINGTON     MOSUNNY   67  58  73 E8        30.09F
KENOSHA        MOSUNNY   59  54  83 E9        30.11F HAZE
FOND DU LAC    SUNNY     71  59  65 E12       30.08F
SHEBOYGAN      MOSUNNY   63  55  75 SE8       30.12F
WEST BEND      MOSUNNY   64  54  68 E8        30.10F
JUNEAU         MOSUNNY   71  61  70 E10       30.08F
$$

LSZ147-162-062300-
LAKE SUPERIOR

STATION/POSITION TIME  TEMP    WIND        PRES    WAVE
                       AIR SEA DIR/SP/G            HT/PER
                 (UTC) (F)     (DEG/KT/KT) (MB)    (FT/S)
W MID LAKE BUOY  2150   39 36   40/ 10/ 10 1018.2F   0
DEVILS ISLAND    2200   42      70/  9/ 11 1017.3F
PORT WING        2100   42      30/ 17/ 19 1016.9
SAXON HARBOR     2120          340/  2/  7 1016.6F
$$

LMZ867-665-643>646-062300-
LAKE MICHIGAN

STATION/POSITION TIME  TEMP    WIND        PRES    WAVE
                       AIR SEA DIR/SP/G            HT/PER
                 (UTC) (F)     (DEG/KT/KT) (MB)    (FT/S)
CHAMBERS ISLAND  2100   59     270/  4/  6 1021.7F
NORTHPORT PIER   2100   47     130/  4/  5 1021.7F
SISTER BAY       2117   62     160/ 10/ 12   N/A
KEWAUNEE LAKESHO 2200   46      80/  1/  5 1019.8F
SHEBOYGAN LAKESH 2200   44      60/  7/  8 1020.9F
PORT WASHINGTON  2100   49      80/  1/  3 1021.3
ATWATER BUOY     2200   44      40/  4/  6 1021.1F
MILWAUKEE LAKESH 2200   45      50/  4/  5   N/A
KENOSHA   LAKESH 2200   47      20/  6/  6 1019.6F
$$

TC  - TEMPERATURE IN CELSIUS
VSB - VISIBILITY IN STATUTE MILES
WCI - WIND CHILL INDEX
HX  - HEAT INDEX




USA.gov is the U.S. government's official web portal to all federal, state and local government web resources and services.